Showing default

SATCOM 3, 11635

Orbit data source: Space-Track

SATCOM 3, 11635 is a payload satellite owned by RCA Americom (US) in HEO that was launched on Fri, 07 Dec 1979 UTC via a DELTA 3914 launch vehicle from the Air Force Eastern Test Range (AFETR). Payload-class satellites include a variety of spacecraft equipped with specific instruments for various scientific and technological missions. These include communications satellites like Starlink; space stations such as the ISS; scientific satellites like the Hubble; Earth observation satellites from companies like Planet Labs, Umbra, and HawkEye 360; GPS; miniature CubeSats for education and research; and military/defense satellites.

Loading next visibility...
Identifier
11635, 1979-101A
Orbit
HEO
Country
Flag of USUS
Related business
Manufacturer
RCA/East Windsor
Mission
Spacecraft
Bus & Motor
SATCOM, SVM-7
Mass
867 kg wet, 335 kg dry
Launch date (UTC)
1979-12-07 (47 years ago)
Launch vehicle
DELTA 3914
Launch site
Air Force Eastern Test Range (AFETR)
Object type
Payload
Rocket body
Debris
Shape & HBR
Unknown
Radar Cross Section
Large (>1 m²)

Expand to show TLE details & history
Last TLE update: 8 hours ago

TLE from 8 hours ago
0 SATCOM 3
1 11635U 79101A   26168.77499412 -.00000105  00000-0  00000+0 0  9996
2 11635   8.7915  82.0871 4804849 107.2618  39.2285  1.82524462223983
Epoch: 2026-06-17T18:35Z
TLE epoch observation values (Epoch: 2026-06-17T18:35:59.491Z)
Latitude
-3.04648°
Longitude
96.95284°
Altitude
15,929.071 km
Speed
4.652 km/s
True Right ascension
18h 47m 54s
True Declination
-3° 02' 26"
Sunlit
Object was in daylight at epoch
Visualization orbit readout
Latitude
Unknown
Longitude
Unknown
Altitude
Unknown
Speed
Unknown
Apparent Right ascension
Unknown
Apparent Declination
Unknown
Sunlit
N/A
Visualization observer readout
Local Sidereal Time
12:58:34
Azimuth
Unknown
Elevation
Unknown
Doppler factor
Unknown
Orbital elements
Apogee altitude
35,497.322 km
Perigee altitude
8,316.328 km
Semi-major axis
28,284.962 km
Eccentricity
0.48048
Inclination
8.7915°
RAAN
82.0871°
Arg. of periapsis
107.2618°
True anomaly
93.01894°
Mean anomaly
39.2285°
Eccentric anomaly
63.96463°
Mean motion
0.45626 °/min
Orbital period
789.03 mins
BSTAR
0
Loading maneuver chart data...
Computing Atmospheric mass density...
Loading historical data...
Loading historical data...
Loading historical data...
Loading historical data...
Loading historical data...
Loading historical data...
Loading historical data...

Documentation

Showing up to 5 results
|